QPF
0.02 0.02 0.01 0.02 0.02 0.02 0.02 0.02 0.03 0.04 0.04 0.04 0.04 0.05 0.05 0.04 0.04 0.04 0.03 0.03 0.03 0.02 0.02 0.03 0.03 0.03 0.03 0.04 0.03 0.02 0.01 0.01 0.02 0.03 0.03 0.03 0.04 0.04
0.02 0.02 0.01 0.01 0.01 0.02 0.02 0.02 0.02 0.03 0.03 0.02 0.02 0.02 0.03 0.03 0.03 0.03 0.03 0.03 0.03 0.02 0.02 0.02 0.02 0.03 0.03 0.03 0.03 0.03 0.02 0.01 0.01 0.02 0.03 0.03 0.02 0.03
0.02 0.01 0.01 0.01 0.01 0.01 0.02 0.02 0.02 0.03 0.03 0.03 0.02 0.02 0.03 0.03 0.03 0.03 0.04 0.03 0.03 0.02 0.02 0.02 0.02 0.02 0.02 0.03 0.03 0.03 0.02 0.01 0.01 0.02 0.03 0.03 0.03 0.03
0.03 0.01 0.01 0.01 0.01 0.01 0.01 0.02 0.02 0.02 0.03 0.03 0.03 0.03 0.03 0.03 0.03 0.03 0.04 0.03 0.02 0.02 0.02 0.02 0.02 0.02 0.02 0.02 0.02 0.03 0.02 0.02 0.01 0.01 0.01 0.02 0.03 0.04
0.04 0.02 0.01 0.01 0.01 0.01 0.01 0.01 0.02 0.02 0.02 0.02 0.02 0.02 0.03 0.03 0.03 0.03 0.03 0.03 0.03 0.02 0.02 0.02 0.02 0.02 0.02 0.02 0.02 0.03 0.03 0.02 0.02 0.01 0.01 0.01 0.01 0.02
0.03 0.03 0.02 0.01 0.01 0.01 0.01 0.01 0.01 0.02 0.02 0.02 0.02 0.02 0.02 0.02 0.03 0.03 0.03 0.03 0.03 0.02 0.02 0.02 0.02 0.02 0.02 0.02 0.02 0.02 0.03 0.03 0.03 0.02 0.01 0.01 0.01 0.02
0.04 0.04 0.03 0.02 0.02 0.01 0.01 0.01 0.01 0.02 0.02 0.02 0.02 0.02 0.01 0.01 0.02 0.02 0.02 0.02 0.02 0.02 0.02 0.02 0.02 0.02 0.02 0.02 0.03 0.03 0.04 0.04 0.03 0.02 0.02 0.02 0.01 0.01
0.05 0.04 0.03 0.03 0.02 0.02 0.02 0.01 0.01 0.01 0.02 0.02 0.02 0.02 0.01 0.01 0.01 0.01 0.02 0.02 0.02 0.02 0.02 0.02 0.02 0.02 0.02 0.02 0.02 0.03 0.04 0.04 0.04 0.03 0.03 0.02 0.02 0.02
0.05 0.04 0.03 0.02 0.02 0.02 0.02 0.01 0.01 0.01 0.01 0.02 0.02 0.01 0.01 0.01 0.01 0.01 0.01 0.02 0.01 0.01 0.02 0.02 0.02 0.03 0.02 0.02 0.02 0.03 0.04 0.04 0.05 0.05 0.04 0.03 0.03 0.03
0.06 0.05 0.05 0.04 0.02 0.02 0.02 0.02 0.01 0.01 0.01 0.01 0.01 0.01 0.01 0.01 0.01 0.02 0.02 0.02 0.02 0.02 0.02 0.03 0.02 0.02 0.02 0.02 0.02 0.03 0.03 0.04 0.05 0.05 0.05 0.05 0.04 0.04
0.05 0.05 0.05 0.05 0.05 0.04 0.03 0.02 0.02 0.01 0.01 0.01 0.01 0.01 0.01 0.02 0.02 0.02 0.03 0.03 0.03 0.02 0.02 0.02 0.02 0.02 0.02 0.02 0.02 0.02 0.03 0.03 0.04 0.05 0.05 0.05 0.05 0.04
0.04 0.04 0.04 0.05 0.06 0.06 0.05 0.04 0.03 0.02 0.01 0.01 0.01 0.01 0.01 0.02 0.02 0.02 0.03 0.03 0.03 0.03 0.02 0.02 0.02 0.02 0.03 0.02 0.02 0.02 0.02 0.03 0.04 0.04 0.04 0.05 0.05 0.04
0.05 0.05 0.04 0.04 0.04 0.05 0.06 0.06 0.04 0.03 0.02 0.02 0.02 0.02 0.01 0.02 0.02 0.02 0.02 0.03 0.03 0.03 0.02 0.02 0.03 0.03 0.03 0.03 0.02 0.02 0.02 0.02 0.03 0.04 0.04 0.04 0.05 0.05
0.06 0.04 0.04 0.04 0.04 0.05 0.06 0.06 0.05 0.05 0.04 0.03 0.02 0.02 0.02 0.02 0.02 0.02 0.02 0.02 0.03 0.03 0.02 0.03 0.03 0.03 0.03 0.03 0.03 0.02 0.02 0.03 0.03 0.04 0.04 0.05 0.05 0.04
0.06 0.05 0.05 0.05 0.06 0.07 0.08 0.07 0.06 0.05 0.05 0.04 0.03 0.02 0.02 0.02 0.02 0.02 0.02 0.02 0.03 0.03 0.03 0.03 0.03 0.03 0.04 0.04 0.03 0.02 0.03 0.03 0.03 0.04 0.04 0.05 0.05 0.05
0.08 0.07 0.07 0.07 0.08 0.09 0.10 0.09 0.08 0.06 0.04 0.04 0.03 0.03 0.03 0.03 0.03 0.02 0.03 0.03 0.04 0.04 0.04 0.04 0.03 0.03 0.04 0.04 0.03 0.03 0.03 0.03 0.03 0.03 0.04 0.05 0.05 0.04
0.08 0.09 0.09 0.08 0.08 0.09 0.09 0.08 0.08 0.07 0.06 0.04 0.04 0.04 0.04 0.03 0.03 0.03 0.03 0.04 0.04 0.04 0.04 0.04 0.03 0.03 0.04 0.04 0.05 0.04 0.03 0.03 0.03 0.04 0.04 0.05 0.04 0.03
0.08 0.08 0.07 0.06 0.06 0.06 0.07 0.07 0.07 0.07 0.06 0.05 0.05 0.04 0.04 0.04 0.03 0.03 0.04 0.04 0.04 0.03 0.04 0.04 0.04 0.05 0.05 0.05 0.04 0.04 0.03 0.03 0.03 0.04 0.04 0.04 0.04 0.03
0.07 0.06 0.05 0.05 0.05 0.05 0.06 0.07 0.07 0.06 0.06 0.06 0.06 0.05 0.04 0.04 0.04 0.04 0.04 0.04 0.04 0.04 0.04 0.04 0.05 0.06 0.05 0.04 0.03 0.03 0.03 0.03 0.04 0.04 0.04 0.03 0.03 0.02
0.04 0.04 0.04 0.04 0.04 0.05 0.05 0.06 0.06 0.06 0.07 0.06 0.06 0.06 0.05 0.05 0.04 0.04 0.04 0.04 0.04 0.04 0.04 0.04 0.05 0.05 0.05 0.04 0.03 0.04 0.04 0.04 0.04 0.04 0.03 0.03 0.03 0.03
0.03 0.03 0.03 0.04 0.05 0.05 0.05 0.05 0.06 0.06 0.06 0.06 0.06 0.06 0.05 0.05 0.05 0.04 0.04 0.04 0.04 0.04 0.04 0.03 0.03 0.04 0.05 0.05 0.05 0.04 0.03 0.04 0.04 0.04 0.04 0.05 0.05 0.05
0.03 0.03 0.03 0.04 0.05 0.05 0.05 0.05 0.05 0.05 0.05 0.05 0.05 0.05 0.05 0.05 0.04 0.04 0.05 0.05 0.05 0.04 0.04 0.04 0.04 0.04 0.05 0.05 0.04 0.03 0.03 0.04 0.05 0.05 0.05 0.04 0.05 0.04
0.03 0.03 0.03 0.04 0.04 0.04 0.05 0.05 0.04 0.04 0.04 0.03 0.04 0.03 0.04 0.04 0.04 0.04 0.05 0.05 0.05 0.05 0.05 0.05 0.05 0.06 0.06 0.05 0.05 0.04 0.04 0.04 0.05 0.05 0.06 0.05 0.04 0.03
MSLP
1021.57 1022.06 1022.53 1022.99 1023.43 1023.86 1024.27 1024.67 1025.05 1025.43 1025.79 1026.13 1026.46 1026.77 1027.05 1027.31 1027.53 1027.72 1027.88 1028.02 1028.15 1028.28 1028.42 1028.57 1028.75 1028.95 1029.17 1029.42 1029.68 1029.94 1030.20 1030.44 1030.66 1030.86 1031.03 1031.17 1031.29 1031.38
1021.05 1021.49 1021.91 1022.32 1022.73 1023.15 1023.56 1023.97 1024.39 1024.79 1025.18 1025.56 1025.92 1026.26 1026.57 1026.85 1027.09 1027.31 1027.49 1027.65 1027.79 1027.91 1028.04 1028.17 1028.32 1028.50 1028.70 1028.93 1029.19 1029.46 1029.74 1030.03 1030.29 1030.54 1030.76 1030.95 1031.10 1031.23
1020.46 1020.88 1021.27 1021.67 1022.07 1022.48 1022.90 1023.33 1023.76 1024.19 1024.60 1024.99 1025.37 1025.71 1026.04 1026.34 1026.61 1026.85 1027.06 1027.24 1027.40 1027.54 1027.67 1027.80 1027.93 1028.08 1028.26 1028.47 1028.71 1028.97 1029.26 1029.56 1029.86 1030.14 1030.41 1030.63 1030.83 1030.99
1019.76 1020.18 1020.59 1020.99 1021.41 1021.83 1022.28 1022.72 1023.17 1023.60 1024.01 1024.41 1024.78 1025.13 1025.45 1025.76 1026.04 1026.31 1026.55 1026.77 1026.97 1027.13 1027.28 1027.40 1027.53 1027.65 1027.80 1027.98 1028.19 1028.43 1028.71 1029.01 1029.32 1029.63 1029.93 1030.19 1030.43 1030.63
1018.92 1019.37 1019.81 1020.25 1020.70 1021.16 1021.62 1022.09 1022.55 1022.98 1023.39 1023.77 1024.13 1024.46 1024.78 1025.08 1025.38 1025.67 1025.94 1026.20 1026.43 1026.63 1026.79 1026.93 1027.05 1027.16 1027.28 1027.41 1027.59 1027.80 1028.05 1028.34 1028.65 1028.98 1029.29 1029.60 1029.87 1030.11
1017.93 1018.43 1018.92 1019.40 1019.89 1020.39 1020.89 1021.38 1021.85 1022.28 1022.68 1023.05 1023.38 1023.69 1024.00 1024.30 1024.60 1024.91 1025.21 1025.50 1025.77 1026.00 1026.18 1026.33 1026.45 1026.54 1026.63 1026.74 1026.88 1027.05 1027.28 1027.55 1027.85 1028.18 1028.52 1028.85 1029.17 1029.45
1016.85 1017.38 1017.90 1018.42 1018.95 1019.48 1020.01 1020.51 1020.99 1021.43 1021.82 1022.17 1022.49 1022.80 1023.09 1023.39 1023.71 1024.03 1024.35 1024.67 1024.97 1025.22 1025.43 1025.59 1025.71 1025.79 1025.86 1025.94 1026.05 1026.19 1026.39 1026.64 1026.94 1027.28 1027.64 1028.00 1028.35 1028.69
1015.74 1016.26 1016.78 1017.32 1017.86 1018.41 1018.94 1019.45 1019.93 1020.37 1020.77 1021.13 1021.45 1021.76 1022.06 1022.37 1022.70 1023.04 1023.39 1023.73 1024.05 1024.33 1024.55 1024.72 1024.84 1024.92 1024.98 1025.04 1025.12 1025.25 1025.44 1025.68 1025.98 1026.32 1026.70 1027.09 1027.48 1027.86
1014.66 1015.13 1015.61 1016.11 1016.63 1017.15 1017.67 1018.18 1018.66 1019.10 1019.51 1019.88 1020.23 1020.56 1020.90 1021.25 1021.60 1021.98 1022.35 1022.71 1023.05 1023.34 1023.58 1023.76 1023.88 1023.97 1024.02 1024.08 1024.16 1024.29 1024.46 1024.71 1025.01 1025.37 1025.77 1026.19 1026.61 1027.03
1013.71 1014.07 1014.45 1014.87 1015.31 1015.77 1016.24 1016.70 1017.16 1017.61 1018.03 1018.43 1018.83 1019.22 1019.61 1020.01 1020.42 1020.84 1021.25 1021.64 1022.00 1022.31 1022.56 1022.75 1022.88 1022.97 1023.04 1023.11 1023.21 1023.34 1023.53 1023.79 1024.10 1024.47 1024.88 1025.32 1025.77 1026.21
1012.96 1013.16 1013.39 1013.67 1013.98 1014.32 1014.70 1015.10 1015.51 1015.94 1016.37 1016.82 1017.27 1017.73 1018.20 1018.68 1019.16 1019.63 1020.09 1020.52 1020.90 1021.23 1021.50 1021.71 1021.86 1021.97 1022.07 1022.16 1022.28 1022.44 1022.65 1022.92 1023.25 1023.62 1024.04 1024.49 1024.94 1025.40
1012.45 1012.46 1012.51 1012.59 1012.73 1012.92 1013.16 1013.45 1013.79 1014.18 1014.61 1015.08 1015.58 1016.11 1016.66 1017.23 1017.79 1018.34 1018.85 1019.33 1019.75 1020.11 1020.40 1020.64 1020.82 1020.97 1021.09 1021.23 1021.38 1021.56 1021.79 1022.08 1022.41 1022.78 1023.19 1023.63 1024.08 1024.53
1012.22 1012.03 1011.86 1011.74 1011.68 1011.67 1011.74 1011.88 1012.11 1012.42 1012.81 1013.28 1013.81 1014.40 1015.02 1015.66 1016.30 1016.92 1017.50 1018.02 1018.49 1018.89 1019.21 1019.49 1019.71 1019.90 1020.07 1020.24 1020.43 1020.64 1020.89 1021.18 1021.50 1021.86 1022.25 1022.66 1023.09 1023.53
1012.27 1011.89 1011.52 1011.19 1010.90 1010.68 1010.55 1010.51 1010.58 1010.77 1011.09 1011.51 1012.03 1012.63 1013.29 1013.98 1014.68 1015.35 1015.99 1016.56 1017.07 1017.51 1017.88 1018.20 1018.46 1018.70 1018.92 1019.13 1019.36 1019.60 1019.85 1020.14 1020.44 1020.77 1021.13 1021.50 1021.90 1022.31
1012.58 1012.04 1011.49 1010.97 1010.47 1010.04 1009.69 1009.45 1009.33 1009.37 1009.55 1009.87 1010.33 1010.90 1011.55 1012.24 1012.95 1013.65 1014.31 1014.92 1015.46 1015.93 1016.34 1016.70 1017.02 1017.30 1017.57 1017.83 1018.09 1018.34 1018.61 1018.88 1019.16 1019.45 1019.76 1020.10 1020.46 1020.86
1013.10 1012.45 1011.78 1011.10 1010.43 1009.79 1009.24 1008.78 1008.47 1008.30 1008.31 1008.49 1008.82 1009.29 1009.86 1010.50 1011.17 1011.85 1012.50 1013.10 1013.65 1014.14 1014.58 1014.98 1015.34 1015.67 1015.98 1016.28 1016.57 1016.85 1017.12 1017.38 1017.64 1017.90 1018.17 1018.47 1018.80 1019.19
1013.77 1013.08 1012.34 1011.55 1010.75 1009.96 1009.21 1008.56 1008.04 1007.67 1007.47 1007.45 1007.61 1007.92 1008.35 1008.87 1009.44 1010.03 1010.62 1011.18 1011.70 1012.18 1012.62 1013.04 1013.43 1013.80 1014.16 1014.50 1014.82 1015.13 1015.41 1015.68 1015.93 1016.17 1016.42 1016.70 1017.03 1017.41
1014.53 1013.85 1013.09 1012.27 1011.39 1010.49 1009.60 1008.78 1008.07 1007.49 1007.08 1006.84 1006.79 1006.89 1007.12 1007.46 1007.87 1008.32 1008.78 1009.24 1009.69 1010.12 1010.54 1010.95 1011.36 1011.76 1012.16 1012.55 1012.92 1013.27 1013.60 1013.89 1014.16 1014.42 1014.68 1014.96 1015.30 1015.70
1015.29 1014.68 1013.96 1013.14 1012.24 1011.28 1010.31 1009.36 1008.49 1007.73 1007.12 1006.66 1006.38 1006.24 1006.25 1006.36 1006.55 1006.80 1007.08 1007.40 1007.72 1008.07 1008.43 1008.82 1009.23 1009.66 1010.11 1010.56 1011.00 1011.42 1011.81 1012.17 1012.49 1012.80 1013.10 1013.43 1013.80 1014.25
1016.02 1015.48 1014.83 1014.06 1013.18 1012.21 1011.20 1010.18 1009.20 1008.30 1007.52 1006.86 1006.35 1005.98 1005.73 1005.58 1005.53 1005.54 1005.61 1005.74 1005.91 1006.14 1006.42 1006.77 1007.17 1007.63 1008.13 1008.65 1009.19 1009.71 1010.20 1010.66 1011.08 1011.47 1011.86 1012.26 1012.69 1013.20
1016.65 1016.20 1015.62 1014.92 1014.09 1013.15 1012.13 1011.09 1010.05 1009.06 1008.14 1007.32 1006.61 1006.01 1005.52 1005.12 1004.81 1004.57 1004.41 1004.32 1004.32 1004.41 1004.60 1004.89 1005.28 1005.77 1006.33 1006.95 1007.59 1008.24 1008.87 1009.46 1010.02 1010.54 1011.04 1011.53 1012.05 1012.62
1017.17 1016.78 1016.26 1015.61 1014.83 1013.94 1012.96 1011.92 1010.87 1009.83 1008.83 1007.89 1007.02 1006.23 1005.53 1004.89 1004.33 1003.85 1003.46 1003.16 1002.98 1002.93 1003.02 1003.26 1003.65 1004.16 1004.80 1005.52 1006.29 1007.09 1007.88 1008.63 1009.34 1010.01 1010.65 1011.26 1011.87 1012.51
1017.56 1017.18 1016.69 1016.08 1015.34 1014.49 1013.55 1012.55 1011.51 1010.46 1009.42 1008.41 1007.44 1006.51 1005.62 1004.79 1004.02 1003.33 1002.73 1002.25 1001.90 1001.73 1001.73 1001.92 1002.30 1002.86 1003.57 1004.40 1005.31 1006.25 1007.21 1008.13 1009.01 1009.83 1010.60 1011.34 1012.05 1012.77
Thickness
5473 5475 5475 5477 5479 5481 5482 5484 5483 5483 5487 5489 5490 5491 5492 5493 5494 5494 5494 5495 5495 5495 5496 5496 5496 5497 5497 5497 5497 5498 5498 5498 5497 5497 5497 5497 5498 5498
5461 5463 5464 5466 5467 5468 5470 5472 5473 5474 5475 5478 5478 5479 5479 5480 5481 5482 5483 5483 5484 5484 5484 5484 5485 5485 5485 5485 5485 5485 5486 5486 5486 5486 5486 5486 5486 5486
5450 5452 5454 5456 5456 5457 5459 5460 5461 5462 5463 5465 5465 5466 5467 5468 5469 5470 5471 5472 5472 5472 5472 5473 5473 5473 5473 5473 5474 5474 5474 5474 5474 5474 5474 5474 5474 5474
5439 5441 5443 5444 5446 5447 5448 5449 5450 5452 5452 5453 5453 5454 5455 5456 5457 5458 5459 5460 5460 5460 5460 5461 5461 5461 5462 5462 5462 5463 5463 5462 5463 5463 5463 5463 5463 5462
5429 5431 5432 5433 5435 5436 5436 5438 5438 5440 5441 5442 5443 5442 5443 5443 5444 5446 5446 5447 5447 5448 5449 5449 5450 5449 5450 5450 5451 5451 5452 5452 5452 5452 5451 5451 5451 5450
5419 5420 5422 5423 5425 5426 5426 5427 5427 5427 5428 5430 5430 5430 5430 5431 5432 5433 5434 5434 5435 5436 5437 5437 5437 5438 5438 5439 5440 5440 5440 5440 5440 5440 5439 5439 5438 5438
5408 5409 5411 5413 5415 5415 5416 5416 5416 5416 5416 5417 5418 5418 5419 5419 5421 5421 5421 5421 5422 5422 5423 5424 5425 5426 5426 5427 5428 5428 5429 5428 5428 5428 5428 5427 5427 5426
5397 5398 5400 5401 5403 5404 5405 5406 5406 5406 5406 5406 5407 5409 5410 5410 5409 5409 5408 5407 5410 5410 5409 5411 5412 5413 5414 5415 5416 5417 5417 5417 5417 5416 5416 5416 5415 5414
5386 5387 5388 5390 5391 5392 5393 5394 5395 5395 5397 5398 5398 5399 5399 5400 5398 5396 5396 5396 5398 5397 5395 5398 5398 5400 5401 5403 5403 5404 5404 5404 5404 5404 5404 5404 5403 5401
5374 5376 5377 5379 5379 5379 5380 5381 5383 5384 5385 5387 5389 5390 5388 5387 5386 5386 5385 5383 5382 5382 5382 5383 5385 5386 5388 5389 5390 5390 5390 5391 5391 5391 5391 5391 5390 5389
5364 5365 5366 5368 5369 5368 5370 5371 5372 5373 5373 5374 5376 5377 5377 5376 5374 5372 5370 5369 5370 5370 5368 5369 5372 5371 5374 5376 5376 5376 5376 5376 5377 5377 5377 5378 5377 5376
5353 5355 5356 5357 5358 5358 5359 5360 5361 5362 5362 5362 5363 5364 5364 5363 5363 5362 5361 5359 5357 5357 5358 5356 5357 5355 5358 5362 5362 5362 5362 5362 5363 5363 5363 5364 5363 5362
5342 5344 5346 5347 5348 5348 5349 5349 5351 5351 5350 5350 5350 5351 5351 5351 5351 5350 5349 5348 5347 5347 5346 5344 5343 5342 5342 5346 5347 5347 5348 5348 5349 5349 5349 5349 5349 5348
5331 5334 5335 5336 5337 5338 5338 5339 5339 5338 5337 5337 5337 5338 5338 5338 5338 5337 5336 5336 5336 5336 5334 5332 5331 5331 5329 5330 5332 5334 5333 5334 5334 5335 5335 5335 5335 5334
5320 5322 5324 5325 5326 5326 5326 5327 5326 5325 5325 5324 5325 5326 5325 5325 5324 5324 5323 5323 5323 5323 5321 5320 5320 5319 5319 5319 5320 5320 5320 5321 5321 5321 5321 5321 5321 5320
5308 5310 5312 5312 5313 5313 5313 5313 5313 5313 5313 5313 5312 5312 5311 5310 5310 5311 5311 5310 5310 5310 5308 5308 5307 5307 5307 5307 5307 5307 5307 5307 5308 5307 5307 5307 5307 5307
5297 5297 5298 5298 5299 5299 5300 5300 5300 5300 5299 5299 5298 5298 5298 5297 5298 5298 5298 5297 5297 5297 5297 5295 5295 5294 5294 5294 5294 5295 5295 5294 5294 5294 5293 5294 5294 5293
5284 5285 5286 5287 5287 5287 5286 5286 5287 5287 5287 5286 5286 5286 5286 5286 5285 5285 5285 5285 5285 5285 5284 5283 5282 5281 5281 5281 5282 5283 5283 5282 5282 5281 5280 5280 5281 5281
5271 5272 5273 5274 5274 5274 5274 5274 5274 5274 5274 5274 5274 5273 5273 5273 5273 5273 5273 5273 5273 5272 5271 5270 5270 5269 5270 5271 5270 5270 5270 5270 5268 5268 5267 5267 5268 5269
5258 5259 5259 5260 5261 5261 5261 5261 5261 5262 5262 5261 5261 5261 5260 5260 5261 5261 5260 5260 5260 5259 5258 5257 5257 5257 5258 5258 5256 5256 5256 5256 5256 5255 5255 5255 5255 5256
5245 5246 5247 5248 5248 5248 5249 5249 5248 5249 5249 5249 5248 5248 5248 5248 5248 5248 5248 5248 5247 5247 5247 5246 5245 5245 5243 5242 5242 5243 5243 5242 5242 5242 5242 5241 5241 5242
5232 5233 5235 5236 5236 5237 5236 5236 5236 5236 5237 5236 5236 5235 5235 5236 5235 5235 5235 5234 5235 5234 5234 5233 5232 5232 5231 5230 5230 5229 5229 5229 5229 5229 5229 5229 5228 5229
5220 5222 5223 5223 5224 5224 5224 5224 5224 5224 5224 5224 5224 5223 5223 5223 5223 5222 5222 5222 5222 5221 5221 5220 5220 5219 5218 5217 5216 5215 5214 5214 5214 5215 5216 5216 5216 5218